owner,sensor,date,latitude,longitude,vertical_datum,direction_of_sea_water_velocity,sea_water_speed,upward_sea_water_velocity,qcFlag 
TABS,ioos:station:wmo:42043:1,2014-08-01T00:00:00Z,28.9818,-94.9186,2.0,303.3465024,4.620735872,-99999.0,'11133222,11111222,99999999' 
TABS,ioos:station:wmo:42043:1,2014-08-01T00:30:00Z,28.9818,-94.9186,2.0,302.0259216,6.015488343,-99999.0,'11133222,11111222,99999999' 
TABS,ioos:station:wmo:42043:1,2014-08-01T01:00:00Z,28.9818,-94.9186,2.0,286.58143,3.714458238,-99999.0,'11133222,11111222,99999999' 
TABS,ioos:station:wmo:42043:1,2014-08-01T01:30:00Z,28.9818,-94.9186,2.0,284.7020563,6.265117716,-99999.0,'11133222,11111222,99999999' 
TABS,ioos:station:wmo:42043:1,2014-08-01T02:00:00Z,28.9818,-94.9186,2.0,297.9416172,7.448254829,-99999.0,'11133222,11111222,99999999' 
TABS,ioos:station:wmo:42043:1,2014-08-01T02:30:00Z,28.9818,-94.9186,2.0,303.6904097,8.220656908,-99999.0,'11133222,11111222,99999999' 
TABS,ioos:station:wmo:42043:1,2014-08-01T03:00:00Z,28.9818,-94.9186,2.0,304.560256,8.038532204,-99999.0,'11133222,11111222,99999999' 
TABS,ioos:station:wmo:42043:1,2014-08-01T03:30:00Z,28.9818,-94.9186,2.0,308.6701765,8.914398465,-99999.0,'11133222,11111222,99999999' 
TABS,ioos:station:wmo:42043:1,2014-08-01T04:00:00Z,28.9818,-94.9186,2.0,317.2679089,11.25888538,-99999.0,'11111222,11111222,99999999' 
TABS,ioos:station:wmo:42043:1,2014-08-01T04:30:00Z,28.9818,-94.9186,2.0,339.6141035,7.894460083,-99999.0,'11133222,11111222,99999999' 
TABS,ioos:station:wmo:42043:1,2014-08-01T05:00:00Z,28.9818,-94.9186,2.0,347.2093612,9.485383493,-99999.0,'11133222,11111222,99999999' 
TABS,ioos:station:wmo:42043:1,2014-08-01T05:30:00Z,28.9818,-94.9186,2.0,340.2769597,9.985834968,-99999.0,'11133222,11111222,99999999' 
TABS,ioos:station:wmo:42043:1,2014-08-01T06:00:00Z,28.9818,-94.9186,2.0,351.5428229,9.654993527,-99999.0,'11133222,11111222,99999999' 
TABS,ioos:station:wmo:42043:1,2014-08-01T06:30:00Z,28.9818,-94.9186,2.0,354.474743,8.931500434,-99999.0,'11133222,11111222,99999999' 
TABS,ioos:station:wmo:42043:1,2014-08-01T07:00:00Z,28.9818,-94.9186,2.0,4.254537385,9.436000212,-99999.0,'11133222,11111222,99999999' 
TABS,ioos:station:wmo:42043:1,2014-08-01T07:30:00Z,28.9818,-94.9186,2.0,8.917539679,9.160725954,-99999.0,'11133222,11111222,99999999' 
TABS,ioos:station:wmo:42043:1,2014-08-01T08:00:00Z,28.9818,-94.9186,2.0,13.31264493,10.94408059,-99999.0,'11111222,11111222,99999999' 
TABS,ioos:station:wmo:42043:1,2014-08-01T08:30:00Z,28.9818,-94.9186,2.0,21.56139748,11.07496727,-99999.0,'11111222,11111222,99999999' 
TABS,ioos:station:wmo:42043:1,2014-08-01T09:00:00Z,28.9818,-94.9186,2.0,20.22267701,12.06363544,-99999.0,'11111222,11111222,99999999' 
TABS,ioos:station:wmo:42043:1,2014-08-01T09:30:00Z,28.9818,-94.9186,2.0,26.18908471,10.21905084,-99999.0,'11111222,11111222,99999999' 
TABS,ioos:station:wmo:42043:1,2014-08-01T10:00:00Z,28.9818,-94.9186,2.0,40.37983784,11.49956956,-99999.0,'11111222,11111222,99999999' 
TABS,ioos:station:wmo:42043:1,2014-08-01T10:30:00Z,28.9818,-94.9186,2.0,49.54225163,11.69692695,-99999.0,'11111222,11111222,99999999' 
TABS,ioos:station:wmo:42043:1,2014-08-01T11:00:00Z,28.9818,-94.9186,2.0,44.9633537,11.02379699,-99999.0,'11111222,11111222,99999999' 
TABS,ioos:station:wmo:42043:1,2014-08-01T11:30:00Z,28.9818,-94.9186,2.0,62.21825127,10.31954456,-99999.0,'11111222,11111222,99999999' 
TABS,ioos:station:wmo:42043:1,2014-08-01T12:00:00Z,28.9818,-94.9186,2.0,72.71759901,12.89205181,-99999.0,'11111222,11111222,99999999' 
TABS,ioos:station:wmo:42043:1,2014-08-01T12:30:00Z,28.9818,-94.9186,2.0,71.46613817,9.15480748,-99999.0,'11133222,11111222,99999999' 
TABS,ioos:station:wmo:42043:1,2014-08-01T13:00:00Z,28.9818,-94.9186,2.0,76.52486476,8.668638878,-99999.0,'11133222,11111222,99999999' 
TABS,ioos:station:wmo:42043:1,2014-08-01T13:30:00Z,28.9818,-94.9186,2.0,78.38388501,6.605285762,-99999.0,'11133222,11111222,99999999' 
TABS,ioos:station:wmo:42043:1,2014-08-01T14:00:00Z,28.9818,-94.9186,2.0,83.79929614,4.536540532,-99999.0,'11133222,11111222,99999999' 
TABS,ioos:station:wmo:42043:1,2014-08-01T14:30:00Z,28.9818,-94.9186,2.0,72.68564862,5.174475819,-99999.0,'11133222,11111222,99999999' 
TABS,ioos:station:wmo:42043:1,2014-08-01T15:00:00Z,28.9818,-94.9186,2.0,103.2831567,4.613426059,-99999.0,'11133222,11111222,99999999' 
TABS,ioos:station:wmo:42043:1,2014-08-01T15:30:00Z,28.9818,-94.9186,2.0,96.30361302,5.191387098,-99999.0,'11133222,11111222,99999999' 
TABS,ioos:station:wmo:42043:1,2014-08-01T16:00:00Z,28.9818,-94.9186,2.0,63.33458047,5.102714964,-99999.0,'11133222,11111222,99999999' 
TABS,ioos:station:wmo:42043:1,2014-08-01T16:30:00Z,28.9818,-94.9186,2.0,101.0409144,7.519175487,-99999.0,'11133222,11111222,99999999' 
TABS,ioos:station:wmo:42043:1,2014-08-01T17:00:00Z,28.9818,-94.9186,2.0,89.12398806,6.540764481,-99999.0,'11133222,11111222,99999999' 
TABS,ioos:station:wmo:42043:1,2014-08-01T17:30:00Z,28.9818,-94.9186,2.0,101.0592705,6.724886616,-99999.0,'11133222,11111222,99999999' 
TABS,ioos:station:wmo:42043:1,2014-08-01T18:00:00Z,28.9818,-94.9186,2.0,88.97146336,5.570897594,-99999.0,'11133222,11111222,99999999' 
TABS,ioos:station:wmo:42043:1,2014-08-01T18:30:00Z,28.9818,-94.9186,2.0,94.621412,7.695017869,-99999.0,'11133222,11111222,99999999' 
TABS,ioos:station:wmo:42043:1,2014-08-01T19:00:00Z,28.9818,-94.9186,2.0,115.2150342,8.732032982,-99999.0,'11133222,11111222,99999999' 
TABS,ioos:station:wmo:42043:1,2014-08-01T19:30:00Z,28.9818,-94.9186,2.0,115.2931904,9.268548969,-99999.0,'11133222,11111222,99999999' 
TABS,ioos:station:wmo:42043:1,2014-08-01T20:00:00Z,28.9818,-94.9186,2.0,100.9830662,6.875943572,-99999.0,'11133222,11111222,99999999' 
TABS,ioos:station:wmo:42043:1,2014-08-01T20:30:00Z,28.9818,-94.9186,2.0,94.91270822,4.787588119,-99999.0,'11133222,11111222,99999999' 
TABS,ioos:station:wmo:42043:1,2014-08-01T21:00:00Z,28.9818,-94.9186,2.0,90.1878539,6.100032787,-99999.0,'11133222,11111222,99999999' 
TABS,ioos:station:wmo:42043:1,2014-08-01T21:30:00Z,28.9818,-94.9186,2.0,79.42543298,7.029381196,-99999.0,'11133222,11111222,99999999' 
TABS,ioos:station:wmo:42043:1,2014-08-01T22:00:00Z,28.9818,-94.9186,2.0,68.21289769,7.463095872,-99999.0,'11133222,11111222,99999999' 
TABS,ioos:station:wmo:42043:1,2014-08-01T22:30:00Z,28.9818,-94.9186,2.0,53.32741893,5.810034423,-99999.0,'11133222,11111222,99999999' 
TABS,ioos:station:wmo:42043:1,2014-08-01T23:00:00Z,28.9818,-94.9186,2.0,67.85165176,7.665644135,-99999.0,'11133222,11111222,99999999' 
TABS,ioos:station:wmo:42043:1,2014-08-01T23:30:00Z,28.9818,-94.9186,2.0,54.03847486,8.327046295,-99999.0,'11133222,11111222,99999999' 
TABS,ioos:station:wmo:42043:1,2014-08-02T00:00:00Z,28.9818,-94.9186,2.0,53.00180546,6.248015685,-99999.0,'11133222,11111222,99999999' 
TABS,ioos:station:wmo:42043:1,2014-08-02T00:30:00Z,28.9818,-94.9186,2.0,50.06645422,7.446643539,-99999.0,'11133222,11111222,99999999' 
TABS,ioos:station:wmo:42043:1,2014-08-02T01:00:00Z,28.9818,-94.9186,2.0,60.27852185,6.091346321,-99999.0,'11133222,11111222,99999999' 
TABS,ioos:station:wmo:42043:1,2014-08-02T01:30:00Z,28.9818,-94.9186,2.0,74.53881841,6.827063791,-99999.0,'11133222,11111222,99999999' 
TABS,ioos:station:wmo:42043:1,2014-08-02T02:00:00Z,28.9818,-94.9186,2.0,59.05582409,5.036913738,-99999.0,'11133222,11111222,99999999' 
TABS,ioos:station:wmo:42043:1,2014-08-02T02:30:00Z,28.9818,-94.9186,2.0,67.9715365,3.279405434,-99999.0,'11133222,11111222,99999999' 
TABS,ioos:station:wmo:42043:1,2014-08-02T03:00:00Z,28.9818,-94.9186,2.0,41.07622508,1.963288058,-99999.0,'11133222,11111222,99999999' 
TABS,ioos:station:wmo:42043:1,2014-08-02T03:30:00Z,28.9818,-94.9186,2.0,97.02076273,2.045336158,-99999.0,'11133222,11111222,99999999' 
TABS,ioos:station:wmo:42043:1,2014-08-02T04:00:00Z,28.9818,-94.9186,2.0,26.80593611,3.193133257,-99999.0,'11133222,11111222,99999999' 
TABS,ioos:station:wmo:42043:1,2014-08-02T04:30:00Z,28.9818,-94.9186,2.0,58.45330908,1.853995685,-99999.0,'11133222,11111222,99999999' 
TABS,ioos:station:wmo:42043:1,2014-08-02T05:00:00Z,28.9818,-94.9186,2.0,64.36482119,3.582652649,-99999.0,'11133222,11111222,99999999' 
TABS,ioos:station:wmo:42043:1,2014-08-02T05:30:00Z,28.9818,-94.9186,2.0,35.30215123,4.239587244,-99999.0,'11133222,11111222,99999999' 
TABS,ioos:station:wmo:42043:1,2014-08-02T06:00:00Z,28.9818,-94.9186,2.0,6.411035488,2.686801072,-99999.0,'11133222,11111222,99999999' 
TABS,ioos:station:wmo:42043:1,2014-08-02T06:30:00Z,28.9818,-94.9186,2.0,96.10276538,1.599062225,-99999.0,'11133222,11111222,99999999' 
TABS,ioos:station:wmo:42043:1,2014-08-02T07:00:00Z,28.9818,-94.9186,2.0,27.07222739,1.010742301,-99999.0,'11133222,11111222,99999999' 
TABS,ioos:station:wmo:42043:1,2014-08-02T07:30:00Z,28.9818,-94.9186,2.0,36.06686451,6.42063081,-99999.0,'11133222,11111222,99999999' 
TABS,ioos:station:wmo:42043:1,2014-08-02T08:00:00Z,28.9818,-94.9186,2.0,19.51813316,6.524944444,-99999.0,'11133222,11111222,99999999' 
TABS,ioos:station:wmo:42043:1,2014-08-02T08:30:00Z,28.9818,-94.9186,2.0,32.15625242,7.252530593,-99999.0,'11133222,11111222,99999999' 
TABS,ioos:station:wmo:42043:1,2014-08-02T09:00:00Z,28.9818,-94.9186,2.0,36.37673611,6.272232457,-99999.0,'11133222,11111222,99999999' 
TABS,ioos:station:wmo:42043:1,2014-08-02T09:30:00Z,28.9818,-94.9186,2.0,50.4106451,6.449263524,-99999.0,'11133222,11111222,99999999' 
TABS,ioos:station:wmo:42043:1,2014-08-02T10:00:00Z,28.9818,-94.9186,2.0,36.27807166,6.388340943,-99999.0,'11133222,11111222,99999999' 
TABS,ioos:station:wmo:42043:1,2014-08-02T10:30:00Z,28.9818,-94.9186,2.0,31.55783575,6.783133494,-99999.0,'11133222,11111222,99999999' 
TABS,ioos:station:wmo:42043:1,2014-08-02T11:00:00Z,28.9818,-94.9186,2.0,39.55509993,4.098499726,-99999.0,'11133222,11111222,99999999' 
TABS,ioos:station:wmo:42043:1,2014-08-02T11:30:00Z,28.9818,-94.9186,2.0,39.94024822,5.451825382,-99999.0,'11133222,11111222,99999999' 
TABS,ioos:station:wmo:42043:1,2014-08-02T12:00:00Z,28.9818,-94.9186,2.0,28.6435649,5.549099026,-99999.0,'11133222,11111222,99999999' 
TABS,ioos:station:wmo:42043:1,2014-08-02T12:30:00Z,28.9818,-94.9186,2.0,30.13566827,5.457655174,-99999.0,'11133222,11111222,99999999' 
TABS,ioos:station:wmo:42043:1,2014-08-02T13:00:00Z,28.9818,-94.9186,2.0,11.64474007,3.022201185,-99999.0,'11133222,11111222,99999999' 
TABS,ioos:station:wmo:42043:1,2014-08-02T13:30:00Z,28.9818,-94.9186,2.0,294.6772264,1.221556384,-99999.0,'11133222,11111222,99999999' 
TABS,ioos:station:wmo:42043:1,2014-08-02T14:00:00Z,28.9818,-94.9186,2.0,127.5511943,2.018142711,-99999.0,'11133222,11111222,99999999' 
TABS,ioos:station:wmo:42043:1,2014-08-02T14:30:00Z,28.9818,-94.9186,2.0,165.109642,1.790111728,-99999.0,'11133222,11111222,99999999' 
TABS,ioos:station:wmo:42043:1,2014-08-02T15:00:00Z,28.9818,-94.9186,2.0,244.6643613,2.50049995,-99999.0,'11133222,11111222,99999999' 
TABS,ioos:station:wmo:42043:1,2014-08-02T15:30:00Z,28.9818,-94.9186,2.0,264.7773893,1.86775266,-99999.0,'11133222,11111222,99999999' 
TABS,ioos:station:wmo:42043:1,2014-08-02T16:00:00Z,28.9818,-94.9186,2.0,196.2599562,2.75,-99999.0,'11133222,11111222,99999999' 
TABS,ioos:station:wmo:42043:1,2014-08-02T16:30:00Z,28.9818,-94.9186,2.0,211.4161118,4.124669684,-99999.0,'11133222,11111222,99999999' 
TABS,ioos:station:wmo:42043:1,2014-08-02T17:00:00Z,28.9818,-94.9186,2.0,225.7917396,4.60370503,-99999.0,'11133222,11111222,99999999' 
TABS,ioos:station:wmo:42043:1,2014-08-02T17:30:00Z,28.9818,-94.9186,2.0,207.1965116,5.272968803,-99999.0,'11133222,11111222,99999999' 
TABS,ioos:station:wmo:42043:1,2014-08-02T18:00:00Z,28.9818,-94.9186,2.0,199.6730792,3.950607548,-99999.0,'11133222,11111222,99999999' 
TABS,ioos:station:wmo:42043:1,2014-08-02T18:30:00Z,28.9818,-94.9186,2.0,227.8198502,5.748669411,-99999.0,'11133222,11111222,99999999' 
TABS,ioos:station:wmo:42043:1,2014-08-02T19:00:00Z,28.9818,-94.9186,2.0,209.3269005,2.041665986,-99999.0,'11133222,11111222,99999999' 
TABS,ioos:station:wmo:42043:1,2014-08-02T19:30:00Z,28.9818,-94.9186,2.0,210.4107997,2.133541656,-99999.0,'11133222,11111222,99999999' 
TABS,ioos:station:wmo:42043:1,2014-08-02T20:00:00Z,28.9818,-94.9186,2.0,201.8216401,5.192041988,-99999.0,'11133222,11111222,99999999' 
TABS,ioos:station:wmo:42043:1,2014-08-02T20:30:00Z,28.9818,-94.9186,2.0,227.1768174,4.281086311,-99999.0,'11133222,11111222,99999999' 
TABS,ioos:station:wmo:42043:1,2014-08-02T21:00:00Z,28.9818,-94.9186,2.0,241.5344835,0.94413982,-99999.0,'11133222,11111222,99999999' 
TABS,ioos:station:wmo:42043:1,2014-08-02T21:30:00Z,28.9818,-94.9186,2.0,358.6217043,3.741082731,-99999.0,'11133222,11111222,99999999' 
TABS,ioos:station:wmo:42043:1,2014-08-02T22:00:00Z,28.9818,-94.9186,2.0,0.434260076,1.320037878,-99999.0,'11133222,11111222,99999999' 
TABS,ioos:station:wmo:42043:1,2014-08-02T22:30:00Z,28.9818,-94.9186,2.0,93.48485429,3.125779903,-99999.0,'11133222,11111222,99999999' 
TABS,ioos:station:wmo:42043:1,2014-08-02T23:00:00Z,28.9818,-94.9186,2.0,43.58916771,1.43586211,-99999.0,'11133222,11111222,99999999' 
TABS,ioos:station:wmo:42043:1,2014-08-02T23:30:00Z,28.9818,-94.9186,2.0,22.35985235,3.049262206,-99999.0,'11133222,11111222,99999999' 
TABS,ioos:station:wmo:42043:1,2014-08-03T00:00:00Z,28.9818,-94.9186,2.0,317.2029087,2.943739119,-99999.0,'11133222,11111222,99999999' 
TABS,ioos:station:wmo:42043:1,2014-08-03T00:30:00Z,28.9818,-94.9186,2.0,39.80568847,3.358407361,-99999.0,'11133222,11111222,99999999' 
TABS,ioos:station:wmo:42043:1,2014-08-03T01:00:00Z,28.9818,-94.9186,2.0,15.94556907,2.984845055,-99999.0,'11133222,11111222,99999999' 
TABS,ioos:station:wmo:42043:1,2014-08-03T01:30:00Z,28.9818,-94.9186,2.0,35.83320182,5.636922919,-99999.0,'11133222,11111222,99999999' 
TABS,ioos:station:wmo:42043:1,2014-08-03T02:00:00Z,28.9818,-94.9186,2.0,28.83111135,6.221133337,-99999.0,'11133222,11111222,99999999' 
TABS,ioos:station:wmo:42043:1,2014-08-03T02:30:00Z,28.9818,-94.9186,2.0,50.67750862,3.64533949,-99999.0,'11133222,11111222,99999999' 
TABS,ioos:station:wmo:42043:1,2014-08-03T03:00:00Z,28.9818,-94.9186,2.0,69.32908996,2.917841668,-99999.0,'11133222,11111222,99999999' 
TABS,ioos:station:wmo:42043:1,2014-08-03T03:30:00Z,28.9818,-94.9186,2.0,67.61991728,0.919238816,-99999.0,'11133222,11111222,99999999' 
TABS,ioos:station:wmo:42043:1,2014-08-03T04:00:00Z,28.9818,-94.9186,2.0,79.46084092,1.749514218,-99999.0,'11133222,11111222,99999999' 
TABS,ioos:station:wmo:42043:1,2014-08-03T04:30:00Z,28.9818,-94.9186,2.0,11.41353812,2.172970317,-99999.0,'11133222,11111222,99999999' 
TABS,ioos:station:wmo:42043:1,2014-08-03T05:00:00Z,28.9818,-94.9186,2.0,113.8145947,3.541539213,-99999.0,'11133222,11111222,99999999' 
TABS,ioos:station:wmo:42043:1,2014-08-03T05:30:00Z,28.9818,-94.9186,2.0,161.6269593,2.918783993,-99999.0,'11133222,11111222,99999999' 
TABS,ioos:station:wmo:42043:1,2014-08-03T06:00:00Z,28.9818,-94.9186,2.0,288.1222388,0.578705452,-99999.0,'11133222,11111222,99999999' 
TABS,ioos:station:wmo:42043:1,2014-08-03T06:30:00Z,28.9818,-94.9186,2.0,177.6138511,0.960832972,-99999.0,'11133222,11111222,99999999' 
TABS,ioos:station:wmo:42043:1,2014-08-03T07:00:00Z,28.9818,-94.9186,2.0,59.03631587,1.224499898,-99999.0,'11133222,11111222,99999999' 
TABS,ioos:station:wmo:42043:1,2014-08-03T07:30:00Z,28.9818,-94.9186,2.0,170.5374895,0.182482876,-99999.0,'11133222,11111222,99999999' 
TABS,ioos:station:wmo:42043:1,2014-08-03T08:00:00Z,28.9818,-94.9186,2.0,210.6503858,1.883082579,-99999.0,'11133222,11111222,99999999' 
TABS,ioos:station:wmo:42043:1,2014-08-03T08:30:00Z,28.9818,-94.9186,2.0,47.80646892,1.444229899,-99999.0,'11133222,11111222,99999999' 
TABS,ioos:station:wmo:42043:1,2014-08-03T09:00:00Z,28.9818,-94.9186,2.0,59.34940372,1.883082579,-99999.0,'11133222,11111222,99999999' 
TABS,ioos:station:wmo:42043:1,2014-08-03T09:30:00Z,28.9818,-94.9186,2.0,4.514188361,1.143547113,-99999.0,'11133222,11111222,99999999' 
TABS,ioos:station:wmo:42043:1,2014-08-03T10:00:00Z,28.9818,-94.9186,2.0,347.3006557,1.455609838,-99999.0,'11133222,11111222,99999999' 
TABS,ioos:station:wmo:42043:1,2014-08-03T10:30:00Z,28.9818,-94.9186,2.0,186.9527308,0.413037529,-99999.0,'11133222,11111222,99999999' 
TABS,ioos:station:wmo:42043:1,2014-08-03T11:00:00Z,28.9818,-94.9186,2.0,98.36586656,1.030970417,-99999.0,'11133222,11111222,99999999' 
TABS,ioos:station:wmo:42043:1,2014-08-03T11:30:00Z,28.9818,-94.9186,2.0,320.0924189,1.434015342,-99999.0,'11133222,11111222,99999999' 
TABS,ioos:station:wmo:42043:1,2014-08-03T12:00:00Z,28.9818,-94.9186,2.0,326.2037244,1.492146105,-99999.0,'11133222,11111222,99999999' 
TABS,ioos:station:wmo:42043:1,2014-08-03T12:30:00Z,28.9818,-94.9186,2.0,221.5523055,2.351850335,-99999.0,'11133222,11111222,99999999' 
TABS,ioos:station:wmo:42043:1,2014-08-03T13:00:00Z,28.9818,-94.9186,2.0,224.2425172,1.605272563,-99999.0,'11133222,11111222,99999999' 
TABS,ioos:station:wmo:42043:1,2014-08-03T13:30:00Z,28.9818,-94.9186,2.0,241.7468089,2.4294238,-99999.0,'11133222,11111222,99999999' 
TABS,ioos:station:wmo:42043:1,2014-08-03T14:00:00Z,28.9818,-94.9186,2.0,217.2076245,4.068070796,-99999.0,'11133222,11111222,99999999' 
TABS,ioos:station:wmo:42043:1,2014-08-03T14:30:00Z,28.9818,-94.9186,2.0,233.4351089,5.254074609,-99999.0,'11133222,11111222,99999999' 
TABS,ioos:station:wmo:42043:1,2014-08-03T15:00:00Z,28.9818,-94.9186,2.0,224.708846,6.965091528,-99999.0,'11133222,11111222,99999999' 
TABS,ioos:station:wmo:42043:1,2014-08-03T15:30:00Z,28.9818,-94.9186,2.0,242.2303544,7.447751338,-99999.0,'11133222,11111222,99999999' 
TABS,ioos:station:wmo:42043:1,2014-08-03T16:00:00Z,28.9818,-94.9186,2.0,221.849419,8.363569812,-99999.0,'11133222,11111222,99999999' 
TABS,ioos:station:wmo:42043:1,2014-08-03T16:30:00Z,28.9818,-94.9186,2.0,215.9670796,11.93548072,-99999.0,'11111222,11111222,99999999' 
TABS,ioos:station:wmo:42043:1,2014-08-03T17:00:00Z,28.9818,-94.9186,2.0,224.6532058,12.86250753,-99999.0,'11111222,11111222,99999999' 
TABS,ioos:station:wmo:42043:1,2014-08-03T17:30:00Z,28.9818,-94.9186,2.0,234.8744234,11.62739008,-99999.0,'11111222,11111222,99999999' 
TABS,ioos:station:wmo:42043:1,2014-08-03T18:00:00Z,28.9818,-94.9186,2.0,241.4464018,11.98806907,-99999.0,'11111222,11111222,99999999' 
TABS,ioos:station:wmo:42043:1,2014-08-03T18:30:00Z,28.9818,-94.9186,2.0,234.3811725,11.5387521,-99999.0,'11111222,11111222,99999999' 
TABS,ioos:station:wmo:42043:1,2014-08-03T19:00:00Z,28.9818,-94.9186,2.0,237.1473443,11.76090133,-99999.0,'11111222,11111222,99999999' 
TABS,ioos:station:wmo:42043:1,2014-08-03T19:30:00Z,28.9818,-94.9186,2.0,240.6084397,13.06110638,-99999.0,'11111222,11111222,99999999' 
TABS,ioos:station:wmo:42043:1,2014-08-03T20:00:00Z,28.9818,-94.9186,2.0,252.2270213,10.94221184,-99999.0,'11111222,11111222,99999999' 
TABS,ioos:station:wmo:42043:1,2014-08-03T20:30:00Z,28.9818,-94.9186,2.0,240.7673026,9.706106325,-99999.0,'11133222,11111222,99999999' 
TABS,ioos:station:wmo:42043:1,2014-08-03T21:00:00Z,28.9818,-94.9186,2.0,258.7570797,6.667953209,-99999.0,'11133222,11111222,99999999' 
TABS,ioos:station:wmo:42043:1,2014-08-03T21:30:00Z,28.9818,-94.9186,2.0,260.3771612,7.059320081,-99999.0,'11133222,11111222,99999999' 
TABS,ioos:station:wmo:42043:1,2014-08-03T22:00:00Z,28.9818,-94.9186,2.0,271.1252961,7.131374342,-99999.0,'11133222,11111222,99999999' 
TABS,ioos:station:wmo:42043:1,2014-08-03T22:30:00Z,28.9818,-94.9186,2.0,269.5260721,6.050206608,-99999.0,'11133222,11111222,99999999' 
TABS,ioos:station:wmo:42043:1,2014-08-03T23:00:00Z,28.9818,-94.9186,2.0,281.2691564,8.187850756,-99999.0,'11133222,11111222,99999999' 
TABS,ioos:station:wmo:42043:1,2014-08-03T23:30:00Z,28.9818,-94.9186,2.0,296.2827699,6.346038134,-99999.0,'11133222,11111222,99999999' 
TABS,ioos:station:wmo:42043:1,2014-08-04T00:00:00Z,28.9818,-94.9186,2.0,288.4353266,7.304861395,-99999.0,'11133222,11111222,99999999' 
TABS,ioos:station:wmo:42043:1,2014-08-04T00:30:00Z,28.9818,-94.9186,2.0,282.0275398,5.326931575,-99999.0,'11133222,11111222,99999999' 
TABS,ioos:station:wmo:42043:1,2014-08-04T01:00:00Z,28.9818,-94.9186,2.0,293.0889465,7.522559405,-99999.0,'11133222,11111222,99999999' 
TABS,ioos:station:wmo:42043:1,2014-08-04T01:30:00Z,28.9818,-94.9186,2.0,284.2898449,6.03677066,-99999.0,'11133222,11111222,99999999' 
TABS,ioos:station:wmo:42043:1,2014-08-04T02:00:00Z,28.9818,-94.9186,2.0,302.255056,6.089745479,-99999.0,'11133222,11111222,99999999' 
TABS,ioos:station:wmo:42043:1,2014-08-04T02:30:00Z,28.9818,-94.9186,2.0,313.5900395,6.033448434,-99999.0,'11133222,11111222,99999999' 
TABS,ioos:station:wmo:42043:1,2014-08-04T03:00:00Z,28.9818,-94.9186,2.0,317.5685836,5.365258614,-99999.0,'11133222,11111222,99999999' 
TABS,ioos:station:wmo:42043:1,2014-08-04T03:30:00Z,28.9818,-94.9186,2.0,334.7706222,7.483916087,-99999.0,'11133222,11111222,99999999' 
TABS,ioos:station:wmo:42043:1,2014-08-04T04:00:00Z,28.9818,-94.9186,2.0,331.143163,7.044778208,-99999.0,'11133222,11111222,99999999' 
TABS,ioos:station:wmo:42043:1,2014-08-04T04:30:00Z,28.9818,-94.9186,2.0,353.9258819,6.426079676,-99999.0,'11133222,11111222,99999999' 
TABS,ioos:station:wmo:42043:1,2014-08-04T05:00:00Z,28.9818,-94.9186,2.0,335.5212267,5.405922678,-99999.0,'11133222,11111222,99999999' 
TABS,ioos:station:wmo:42043:1,2014-08-04T05:30:00Z,28.9818,-94.9186,2.0,326.9217968,5.716511174,-99999.0,'11133222,11111222,99999999' 
TABS,ioos:station:wmo:42043:1,2014-08-04T06:00:00Z,28.9818,-94.9186,2.0,301.8363072,3.943209353,-99999.0,'11133222,11111222,99999999' 
TABS,ioos:station:wmo:42043:1,2014-08-04T06:30:00Z,28.9818,-94.9186,2.0,307.3426239,3.396115428,-99999.0,'11133222,11111222,99999999' 
TABS,ioos:station:wmo:42043:1,2014-08-04T07:00:00Z,28.9818,-94.9186,2.0,290.1366773,2.875778156,-99999.0,'11133222,11111222,99999999' 
TABS,ioos:station:wmo:42043:1,2014-08-04T07:30:00Z,28.9818,-94.9186,2.0,263.6594022,1.901630879,-99999.0,'11133222,11111222,99999999' 
TABS,ioos:station:wmo:42043:1,2014-08-04T08:00:00Z,28.9818,-94.9186,2.0,25.07204924,1.887882412,-99999.0,'11133222,11111222,99999999' 
TABS,ioos:station:wmo:42043:1,2014-08-04T08:30:00Z,28.9818,-94.9186,2.0,189.4620896,1.824828759,-99999.0,'11133222,11111222,99999999' 
TABS,ioos:station:wmo:42043:1,2014-08-04T09:00:00Z,28.9818,-94.9186,2.0,282.858481,0.943663075,-99999.0,'11133222,11111222,99999999' 
TABS,ioos:station:wmo:42043:1,2014-08-04T09:30:00Z,28.9818,-94.9186,2.0,258.905882,1.039422917,-99999.0,'11133222,11111222,99999999' 
TABS,ioos:station:wmo:42043:1,2014-08-04T10:00:00Z,28.9818,-94.9186,2.0,157.9690662,2.319353358,-99999.0,'11133222,11111222,99999999' 
TABS,ioos:station:wmo:42043:1,2014-08-04T10:30:00Z,28.9818,-94.9186,2.0,192.3044396,3.050065573,-99999.0,'11133222,11111222,99999999' 
TABS,ioos:station:wmo:42043:1,2014-08-04T11:00:00Z,28.9818,-94.9186,2.0,203.3738992,2.570992026,-99999.0,'11133222,11111222,99999999' 
TABS,ioos:station:wmo:42043:1,2014-08-04T11:30:00Z,28.9818,-94.9186,2.0,155.4482713,5.727870459,-99999.0,'11133222,11111222,99999999' 
TABS,ioos:station:wmo:42043:1,2014-08-04T12:00:00Z,28.9818,-94.9186,2.0,195.9044552,5.802111685,-99999.0,'11133222,11111222,99999999' 
TABS,ioos:station:wmo:42043:1,2014-08-04T12:30:00Z,28.9818,-94.9186,2.0,217.0352481,6.22602602,-99999.0,'11133222,11111222,99999999' 
TABS,ioos:station:wmo:42043:1,2014-08-04T13:00:00Z,28.9818,-94.9186,2.0,193.3876698,5.787270514,-99999.0,'11133222,11111222,99999999' 
TABS,ioos:station:wmo:42043:1,2014-08-04T13:30:00Z,28.9818,-94.9186,2.0,211.9393039,5.538492575,-99999.0,'11133222,11111222,99999999' 
TABS,ioos:station:wmo:42043:1,2014-08-04T14:00:00Z,28.9818,-94.9186,2.0,205.476718,5.416733333,-99999.0,'11133222,11111222,99999999' 
TABS,ioos:station:wmo:42043:1,2014-08-04T14:30:00Z,28.9818,-94.9186,2.0,191.6291307,7.738862966,-99999.0,'11133222,11111222,99999999' 
TABS,ioos:station:wmo:42043:1,2014-08-04T15:00:00Z,28.9818,-94.9186,2.0,190.3046119,9.615092303,-99999.0,'11133222,11111222,99999999' 
TABS,ioos:station:wmo:42043:1,2014-08-04T15:30:00Z,28.9818,-94.9186,2.0,209.645581,11.48315288,-99999.0,'11111222,11111222,99999999' 
TABS,ioos:station:wmo:42043:1,2014-08-04T16:00:00Z,28.9818,-94.9186,2.0,221.5378056,15.4572766,-99999.0,'11111222,11111222,99999999' 